Regional Weather Roundup
Issued by NWS Wilmington, NC

Home | Current Version | Previous Version | Text Only | Print | Product List | Glossary On
Versions: 1 2 3 4 5 6 7 8 9 10 11 12 13 14 15 16 17 18 19 20 21 22 23 24 25 26 27 28 29 30 31 32 33 34 35 36 37 38 39 40 41 42 43 44 45 46 47 48 49 50
000
ASUS42 KILM 112313
RWRILM
RWRILM
REGIONAL HOURLY WEATHER ROUNDUP
NATIONAL WEATHER SERVICE WILMINGTON NC
600 PM EST MON DEC 11 2017

NOTE: "FAIR" INDICATES FEW OR NO CLOUDS BELOW 12,000 FEET WITH NO
SIGNIFICANT WEATHER AND/OR OBSTRUCTIONS TO VISIBILITY.

...............WFO WILMINGTON COUNTY WARNING AREA...............

......COASTAL NC AND SC COUNTIES......

CITY           SKY/WX    TMP DP  RH WIND       PRES   REMARKS
WILMINGTON     CLEAR     43  30  60 CALM      30.04S
N MYRTLE BEACH CLEAR     44  38  79 CALM      30.04S
MYRTLE BEACH   CLEAR     48  39  71 SW6       30.06S

......INLAND NC AND SC COUNTIES.......

CITY           SKY/WX    TMP DP  RH WIND       PRES   REMARKS
LUMBERTON      CLEAR     42  36  79 CALM      30.03R
ELIZABETHTOWN  NOT AVBL
WHITEVILLE     CLEAR     44  37  76 CALM      30.03S
FLORENCE       CLEAR     46  33  60 S5        30.05R
DARLINGTON     CLEAR     42  34  73 CALM      30.04R
KINGSTREE      FAIR      43  39  87 CALM      30.06R
HARTSVILLE     FAIR      41  32  70 CALM      30.02S
BENNETTSVILLE  FAIR      45  36  70 S3        30.03S
CONWAY         FAIR      41  37  87 CALM      30.06R
GEORGETOWN     FAIR      43  39  87 SW3       30.07R
MARION         FAIR      43  34  70 CALM      30.05R

....................REST OF NORTH CAROLINA......................

.........EASTERN NC.........

CITY           SKY/WX    TMP DP  RH WIND       PRES   REMARKS
CAPE HATTERAS  CLEAR     37  35  92 CALM      30.05F
JACKSONVILLE   CLEAR     39  35  86 S6        30.04S WCI  35
MOREHEAD CITY  CLEAR     40  35  83 CALM      30.04F
KENANSVILLE    CLEAR     39  34  81 CALM      30.03F
NEW BERN       CLEAR     39  36  89 CALM      30.04F
ELIZABETH CITY CLEAR     43  34  70 SE6       30.03F

.........CENTRAL NC.........

CITY           SKY/WX    TMP DP  RH WIND       PRES   REMARKS
RALEIGH DURHAM CLEAR     44  32  62 CALM      30.01R
ROCKY MOUNT    CLEAR     42  35  76 CALM      30.02R
ROANOKE RAPIDS NOT AVBL
FAYETTEVILLE   CLEAR     44  34  67 S5        30.02S
HOFFMAN        CLEAR     41  31  68 CALM      30.02S

.........WESTERN NC.........

CITY           SKY/WX    TMP DP  RH WIND       PRES   REMARKS
CHARLOTTE      PTCLDY    45  31  58 S7        29.99F
GREENSBORO     CLEAR     44  31  60 S8        29.96F
HICKORY        NOT AVBL
BOONE          NOT AVBL
ASHEVILLE      NOT AVBL

.....................REST OF SOUTH CAROLINA.....................

.........EASTERN SC.........

CITY           SKY/WX    TMP DP  RH WIND       PRES   REMARKS
CHARLESTON     CLEAR     51  35  54 W5        30.07R
BEAUFORT MCAS  CLEAR     51  42  71 SW5       30.08S
HILTON HEAD    CLEAR     48  43  81 SW3       30.10R

.........CENTRAL SC.........

CITY           SKY/WX    TMP DP  RH WIND       PRES   REMARKS
COLUMBIA       CLEAR     53  35  50 SW5       30.02S
ORANGEBURG     CLEAR     47  35  63 S6        30.05S
SUMTER SHAW    CLEAR     47  35  61 S5        30.01S

.........WESTERN SC.........

CITY           SKY/WX    TMP DP  RH WIND       PRES   REMARKS
GREENVILLE     NOT AVBL
ROCK HILL      CLEAR     45  32  60 CALM      30.00S
ANDERSON       CLEAR     51  32  48 SW7       29.99F
CLEMSON        NOT AVBL
GREENWOOD      CLEAR     49  34  56 S6        30.02S


...................COASTAL AND OFFSHORE REPORTS..................

................LOCAL PIERS AND NC RESERVE................


STATION/POSITION TIME  SKY/WX   TEMP    WIND        PRES    VSBY
                                AIR SEA DIR/SP/G
                 (UTC)          (F)     (DEG/KT/KT) (MB)    (MI)
JOHNY MRCER PIER 2248            49 58  170/  5/  6 1017.2F
NC RESRV MASNBRO 2145            47     180/  1     1017.0
OCEAN CREST PIER NOT AVBL
SPRINGMAID  PIER 2248                               1020.5S


................COASTAL AND OFFSHORE BUOYS................


STATION/POSITION TIME  SKY/WX   TEMP    WIND        PRES    VSBY
                                AIR SEA DIR/SP/G
                 (UTC)          (F)     (DEG/KT/KT) (MB)    (MI)
DIMNDSHOAL 41025 2250            53 75  290/  4/  6 1017.6F
WVE H/P(F/S)=  3/ 6 SWL H/P/D(F/S/D)=  3/220/ 6

CAPE LOOKOUT     2300                   200/  3/  4 1017.5F
ONSLOW BAY 41036 NOT AVBL
ONSLOW BAY 41064 2208            52 68  210/  2/  4 1017.5F
ONSLOW BAY 41159 2300               68                N/A
WVE H/P(F/S)=  3/ 5

MASNBO INL 41110 2259               58                N/A
WVE H/P(F/S)=  2/ 9

WILM HARBR 41108 2230               58                N/A
WVE H/P(F/S)=  2/ 5

27SE WRITB 41037 2208            51 66  250/  2/  6 1017.5F
FRYING PAN 41013 2300            53 60  270/  6/ 10 1017.2
SUNST NRSH 41024 2208            50     200/  4/  6 1017.1F
CAPRS NRSH 41029 2208            50 58  220/ 10/ 14 1017.7F
EDISTO     41004 2250               74  280/ 12/ 16 1017.9R
WVE H/P(F/S)=  3/ 5 SWL H/P/D(F/S/D)=  2/100/ 8



..........OFFSHORE BUOYS BEYOND 100 NM OFFSHORE...........
.....IN A TRIANGLE---HAT TO BERMUDA TO BAHAMAS TO HAT.....


STATION/POSITION TIME  SKY/WX   TEMP    WIND        PRES    VSBY
                                AIR SEA DIR/SP/G
                 (UTC)          (F)     (DEG/KT/KT) (MB)    (MI)
150E HAT   41001 NOT AVBL
W BERMUDA  41048 2300            66 75  340/  6/ 10 1019.2
ATLANTIC S 41049 2250            73 78  350/ 21/ 25 1015.9F
WVE H/P(F/S)=  5/11 SWL H/P/D(F/S/D)=  5/330/11

E BAHAMAS  41046 2300            74 80  120/ 10/ 14 1014.7
NE BAHAMAS 41047 2300            70      60/ 14/ 17 1018.3
120E CANVRL41010 NOT AVBL

END



USA.gov is the U.S. government's official web portal to all federal, state and local government web resources and services.